Weather History for Oslo / Gardermoen, Norway

Change the Weather History Date:

Saturday, November 9, 2013

  Actual Average Record
Temperature  
Mean Temperature 36 °F -  
Max Temperature 39 °F 33 °F - ()
Min Temperature 33 °F 25 °F - ()
Degree Days  
Heating Degree Days 29    
Moisture  
Dew Point 36 °F    
Average Humidity 96    
Maximum Humidity 100    
Minimum Humidity 93    
Precipitation  
Precipitation 0.08 in 0.11 in - ()
Sea Level Pressure  
Sea Level Pressure 29.41 in    
Wind  
Wind Speed 5 mph ()    
Max Wind Speed 14 mph    
Max Gust Speed -    
Visibility 5.3 miles    
Events Fog , Rain    
T = Trace of Precipitation, MM = Missing Value Source: Averaged Metar Reports

Daily Weather History Graph

Daily Weather History Graph

Search for Another Location

Airport:

Trip Planner

Search our weather history database for the weather conditions in past years. The results will help you decide how hot, cold, wet, or windy it might be!

Date:

Astronomy

Nov. 09, 2013 Rise Set
Actual Time 7:59 AM CET 3:58 PM CET
Civil Twilight 7:11 AM CET 4:46 PM CET
Nautical Twilight 6:20 AM CET 5:37 PM CET
Astronomical Twilight 5:31 AM CET 6:25 PM CET
Moon 1:13 PM CET (11/9) 10:27 PM CET (11/9)
Length of Visible Light 9h 34m
Length of Day
7h 58m
Waxing Crescent, 41% of the Moon is Illuminated
Nov 9
Waxing Crescent
Nov 10
First Quarter
Nov 17
Full
Nov 25
Last Quarter
Dec 3
New

Hourly Weather History & Observations

Time (CET) Temp. Windchill Dew Point Humidity Pressure Visibility Wind Dir Wind Speed Gust Speed Precip Events Conditions
12:20 AM 33.8 °F 27.7 °F 33.8 °F 100% 29.50 in - SSW 6.9 mph - N/A   Clear
12:50 AM 33.8 °F 28.6 °F 33.8 °F 100% 29.50 in 6.2 mi SSW 5.8 mph - N/A   Partly Cloudy
1:00 AM 36 °F - 36 °F 99%  in 12 mi South 4.5 mph - -   Partly Cloudy
1:20 AM 35.6 °F 29.2 °F 33.8 °F 93% 29.53 in 6.2 mi SSW 8.1 mph - N/A   Mostly Cloudy
1:50 AM 37.4 °F 32.1 °F 35.6 °F 93% 29.53 in 6.2 mi SW 6.9 mph - N/A   Mostly Cloudy
2:20 AM 35.6 °F - 33.8 °F 93% 29.53 in 6.2 mi Variable 2.3 mph - N/A   Mostly Cloudy
2:50 AM 33.8 °F 27.7 °F 33.8 °F 100% 29.50 in 5.6 mi SSW 6.9 mph - N/A   Mostly Cloudy
3:20 AM 35.6 °F 31.7 °F 33.8 °F 93% 29.50 in 6.2 mi SSW 4.6 mph - N/A   Scattered Clouds
3:50 AM 35.6 °F 32.8 °F 35.6 °F 100% 29.50 in 5.6 mi SSW 3.5 mph - N/A Fog Fog
4:20 AM 35.6 °F - 35.6 °F 100% 29.50 in 6.2 mi Calm Calm - N/A Fog Mostly Cloudy
4:50 AM 35.6 °F 31.7 °F 35.6 °F 100% 29.50 in 6.2 mi SSE 4.6 mph - N/A Fog Mostly Cloudy
5:20 AM 37.4 °F 34.9 °F 35.6 °F 93% 29.50 in 6.2 mi SSE 3.5 mph - N/A   Mostly Cloudy
5:50 AM 37.4 °F - 35.6 °F 93% 29.50 in 5.6 mi Calm Calm - N/A   Mostly Cloudy
6:20 AM 37.4 °F - 35.6 °F 93% 29.50 in 5.6 mi Calm Calm - N/A   Mostly Cloudy
6:50 AM 37.4 °F - 35.6 °F 93% 29.50 in 6.2 mi Calm Calm - N/A   Mostly Cloudy
7:00 AM 37 °F - 36 °F 95%  in 6 mi Calm Calm - -   Partly Cloudy
7:20 AM 35.6 °F - 35.6 °F 100% 29.50 in 6.2 mi Calm Calm - N/A Fog Patches of Fog
7:50 AM 35.6 °F - 35.6 °F 100% 29.50 in 4.3 mi Variable 1.2 mph - N/A Fog Mostly Cloudy
8:20 AM 35.6 °F 32.8 °F 33.8 °F 93% 29.50 in 4.3 mi ENE 3.5 mph - N/A Fog Patches of Fog
8:50 AM 35.6 °F - 33.8 °F 93% 29.50 in 4.3 mi Calm Calm - N/A Fog Mostly Cloudy
9:20 AM 35.6 °F - 35.6 °F 100% 29.50 in 2.5 mi Calm Calm - N/A Fog Patches of Fog
9:50 AM 35.6 °F 31.7 °F 35.6 °F 100% 29.47 in 2.5 mi NNW 4.6 mph - N/A   Mostly Cloudy
10:20 AM 35.6 °F 32.8 °F 35.6 °F 100% 29.47 in 2.5 mi North 3.5 mph - N/A Fog Patches of Fog
10:50 AM 35.6 °F - 35.6 °F 100% 29.47 in - North 2.3 mph - N/A Fog Fog
11:20 AM 37.4 °F 33.8 °F 37.4 °F 100% 29.47 in 0.4 mi NNE 4.6 mph - N/A Fog Fog
11:50 AM 37.4 °F 34.9 °F 35.6 °F 93% 29.44 in 0.4 mi North 3.5 mph - N/A Fog Fog
12:20 PM 37.4 °F 31.4 °F 37.4 °F 100% 29.44 in 1.2 mi NNE 8.1 mph - N/A Rain Light Rain
12:50 PM 37.4 °F 31.4 °F 37.4 °F 100% 29.44 in - NNE 8.1 mph - N/A Rain Light Rain
1:00 PM 38 °F - 38 °F 98%  in 1 mi NNE 6.7 mph - - Rain Light Rain
1:20 PM 37.4 °F 32.1 °F 37.4 °F 100% 29.42 in - NNE 6.9 mph - N/A   Mostly Cloudy
1:50 PM 39.2 °F 33.6 °F 37.4 °F 93% 29.42 in 3.7 mi NNE 8.1 mph - N/A   Mostly Cloudy
2:20 PM 39.2 °F 34.2 °F 37.4 °F 93% 29.39 in 5.6 mi NNE 6.9 mph - N/A   Mostly Cloudy
2:50 PM 37.4 °F 32.1 °F 37.4 °F 100% 29.39 in 5.6 mi NNE 6.9 mph - N/A   Mostly Cloudy
3:20 PM 39.2 °F 34.2 °F 37.4 °F 93% 29.36 in 5.6 mi NE 6.9 mph - N/A   Light Drizzle
3:50 PM 37.4 °F 32.1 °F 37.4 °F 100% 29.36 in 5.6 mi NNE 6.9 mph - N/A Rain Light Rain
4:20 PM 39.2 °F 34.2 °F 37.4 °F 93% 29.36 in 5.0 mi NNE 6.9 mph - N/A Rain Light Rain
4:50 PM 39.2 °F 35.0 °F 37.4 °F 93% 29.33 in 6.2 mi NNE 5.8 mph - N/A Rain Light Rain
5:20 PM 39.2 °F 35.0 °F 37.4 °F 93% 29.33 in 6.2 mi NNE 5.8 mph - N/A Rain Light Rain
5:50 PM 39.2 °F 35.0 °F 37.4 °F 93% 29.33 in 6.2 mi NNE 5.8 mph - N/A Rain Light Rain
6:20 PM 39.2 °F 35.0 °F 37.4 °F 93% 29.30 in 5.6 mi NNE 5.8 mph - N/A Rain Light Rain
6:50 PM 39.2 °F 34.2 °F 37.4 °F 93% 29.30 in 6.2 mi North 6.9 mph - N/A Rain Light Rain
7:00 PM 38 °F - 38 °F 100%  in 9 mi North 8.9 mph - - Rain Light Rain
7:20 PM 39.2 °F 33.6 °F 37.4 °F 93% 29.30 in 6.2 mi North 8.1 mph - N/A Rain Light Rain
7:50 PM 39.2 °F 33.0 °F 37.4 °F 93% 29.27 in 6.2 mi North 9.2 mph - N/A Rain Light Rain
8:20 PM 37.4 °F 28.9 °F 37.4 °F 100% 29.27 in 5.6 mi North 13.8 mph - N/A Rain Light Rain
8:50 PM 37.4 °F 30.3 °F 37.4 °F 100% 29.27 in 5.6 mi North 10.4 mph - N/A Rain Light Rain
9:20 PM 37.4 °F 30.3 °F 35.6 °F 93% 29.27 in 5.6 mi North 10.4 mph - N/A Rain Light Rain
9:50 PM 37.4 °F 30.8 °F 35.6 °F 93% 29.27 in 6.2 mi North 9.2 mph - N/A Rain Light Rain
10:20 PM 37.4 °F 30.8 °F 35.6 °F 93% 29.27 in 6.2 mi North 9.2 mph - N/A Rain Light Rain
10:50 PM 37.4 °F 30.8 °F 35.6 °F 93% 29.27 in 6.2 mi North 9.2 mph - N/A Rain Light Rain
11:20 PM 37.4 °F 30.3 °F 35.6 °F 93% 29.27 in 6.2 mi North 10.4 mph - N/A Rain Light Rain
11:50 PM 37.4 °F 29.3 °F 35.6 °F 93% 29.27 in 6.2 mi North 12.7 mph - N/A Rain Light Rain